GALAXY 35 (G-35)

Last updated on Tue Oct 08 2024 00:02:42 GMT+0000 (Coordinated Universal Time)

1 54741U 22170A 24281.59759317 -.00000151 00000+0 00000+0 0 9992 2 54741 0.0023 181.5780 0001987 11.6231 305.5814 1.00271722 6708
UTC large
Height (km)
Speed (km/s)
/
Latitude / Longitude
Inclination (degrees)
Orbital Period (minutes)
Azimuth
Elevation
Range (km)
Doppler Factor

Next 0 passes for location: London (51.5072 / 0.1276)

Sorry there are no passes over London.